| time (UTC) | temp C | wind direction | speed KPH | gust KPH | rain 1hr cm | rain 24hr cm | rain mn cm | humidity % | barometer mb |
| 20260508023524 | 10 | 0 | 0.0 | 1.6 | 0.00 | 0.00 | 0.00 | 56 | 1016.8 |
| 20260508023043 | 10 | 0 | 0.0 | 1.6 | 0.00 | 0.00 | 0.00 | 55 | 1016.9 |
| 20260508022524 | 10 | 0 | 0.0 | 1.6 | 0.00 | 0.00 | 0.00 | 55 | 1016.9 |
| 20260508022024 | 10 | 0 | 0.0 | 1.6 | 0.00 | 0.00 | 0.00 | 55 | 1016.7 |
| 20260508021544 | 10 | 0 | 0.0 | 1.6 | 0.00 | 0.00 | 0.00 | 54 | 1016.7 |
| 20260508021024 | 10 | 0 | 0.0 | 1.6 | 0.00 | 0.00 | 0.00 | 54 | 1016.6 |
| 20260508020526 | 10 | 0 | 0.0 | 1.6 | 0.00 | 0.00 | 0.00 | 53 | 1016.5 |
| 20260508020044 | 10 | 0 | 0.0 | 1.6 | 0.00 | 0.00 | 0.00 | 53 | 1016.6 |
| 20260508015524 | 11 | 0 | 0.0 | 3.2 | 0.00 | 0.00 | 0.00 | 53 | 1016.4 |
| 20260508015024 | 11 | 0 | 0.0 | 3.2 | 0.00 | 0.00 | 0.00 | 52 | 1016.3 |
| 20260508014545 | 11 | 181 | 0.0 | 3.2 | 0.00 | 0.00 | 0.00 | 52 | 1016.3 |
| 20260508014024 | 11 | 308 | 0.0 | 4.8 | 0.00 | 0.00 | 0.00 | 52 | 1016.3 |
| 20260508013523 | 11 | 0 | 0.0 | 4.8 | 0.00 | 0.00 | 0.00 | 52 | 1016.1 |
| 20260508013039 | 11 | 191 | 0.0 | 4.8 | 0.00 | 0.00 | 0.00 | 52 | 1016.3 |
| 20260508012524 | 11 | 142 | 0.0 | 1.6 | 0.00 | 0.00 | 0.00 | 51 | 1016.1 |
| 20260508012024 | 11 | 0 | 0.0 | 3.2 | 0.00 | 0.00 | 0.00 | 52 | 1016.0 |
| 20260508011546 | 11 | 0 | 0.0 | 3.2 | 0.00 | 0.00 | 0.00 | 52 | 1015.9 |
| 20260508011023 | 11 | 300 | 0.0 | 3.2 | 0.00 | 0.00 | 0.00 | 50 | 1015.8 |
| 20260508010524 | 11 | 0 | 0.0 | 0.0 | 0.00 | 0.00 | 0.00 | 50 | 1015.6 |
| 20260508010043 | 11 | 0 | 0.0 | 1.6 | 0.00 | 0.00 | 0.00 | 49 | 1015.7 |
| 20260508005527 | 11 | 0 | 0.0 | 1.6 | 0.00 | 0.00 | 0.00 | 50 | 1015.6 |
| 20260508005025 | 12 | 0 | 0.0 | 1.6 | 0.00 | 0.00 | 0.00 | 48 | 1015.6 |
| 20260508004545 | 12 | 224 | 0.0 | 1.6 | 0.00 | 0.00 | 0.00 | 48 | 1015.6 |
| 20260508004027 | 12 | 237 | 0.0 | 3.2 | 0.00 | 0.00 | 0.00 | 47 | 1015.5 |
| 20260508003524 | 12 | 189 | 0.0 | 3.2 | 0.00 | 0.00 | 0.00 | 47 | 1015.4 |
| 20260508003041 | 12 | 215 | 0.0 | 3.2 | 0.00 | 0.00 | 0.00 | 47 | 1015.3 |
| 20260508002524 | 12 | 326 | 0.0 | 1.6 | 0.00 | 0.00 | 0.00 | 46 | 1015.2 |
| 20260508002024 | 12 | 258 | 0.0 | 6.4 | 0.00 | 0.00 | 0.00 | 46 | 1015.1 |
| 20260508001538 | 13 | 266 | 0.0 | 6.4 | 0.00 | 0.00 | 0.00 | 45 | 1015.0 |
| 20260508001024 | 13 | 205 | 1.6 | 6.4 | 0.00 | 0.00 | 0.00 | 45 | 1015.0 |
| 20260508000526 | 13 | 326 | 0.0 | 6.4 | 0.00 | 0.00 | 0.00 | 45 | 1014.7 |
| 20260508000046 | 13 | 266 | 1.6 | 9.7 | 0.00 | 0.00 | 0.00 | 43 | 1014.7 |
| 20260507235525 | 13 | 240 | 3.2 | 11.3 | 0.00 | 0.00 | 0.00 | 42 | 1014.6 |
| 20260507235023 | 13 | 298 | 4.8 | 11.3 | 0.00 | 0.00 | 0.00 | 43 | 1014.9 |
| 20260507234544 | 13 | 324 | 1.6 | 4.8 | 0.00 | 0.00 | 0.00 | 45 | 1014.6 |
| 20260507234024 | 13 | 268 | 1.6 | 4.8 | 0.00 | 0.00 | 0.00 | 44 | 1014.5 |
| 20260507233524 | 14 | 354 | 1.6 | 8.0 | 0.00 | 0.00 | 0.00 | 45 | 1014.4 |
| 20260507233044 | 14 | 275 | 1.6 | 8.0 | 0.00 | 0.00 | 0.00 | 44 | 1014.3 |
| 20260507232524 | 14 | 319 | 1.6 | 8.0 | 0.00 | 0.00 | 0.00 | 44 | 1014.3 |
| 20260507232024 | 14 | 314 | 1.6 | 6.4 | 0.00 | 0.00 | 0.00 | 44 | 1014.2 |
| 20260507231542 | 14 | 314 | 1.6 | 6.4 | 0.00 | 0.00 | 0.00 | 44 | 1014.1 |
| 20260507231024 | 14 | 281 | 1.6 | 4.8 | 0.00 | 0.00 | 0.00 | 43 | 1014.2 |
| 20260507230524 | 14 | 276 | 1.6 | 4.8 | 0.00 | 0.00 | 0.00 | 45 | 1014.1 |
| 20260507230042 | 14 | 356 | 1.6 | 8.0 | 0.00 | 0.00 | 0.00 | 43 | 1014.0 |
| 20260507225525 | 14 | 333 | 3.2 | 8.0 | 0.00 | 0.00 | 0.00 | 45 | 1014.1 |
| 20260507225023 | 14 | 327 | 1.6 | 8.0 | 0.00 | 0.00 | 0.00 | 44 | 1014.0 |
| 20260507224546 | 14 | 273 | 3.2 | 6.4 | 0.00 | 0.00 | 0.00 | 45 | 1014.1 |
| 20260507224023 | 15 | 342 | 3.2 | 6.4 | 0.00 | 0.00 | 0.00 | 42 | 1014.1 |
| 20260507223524 | 15 | 307 | 1.6 | 12.9 | 0.00 | 0.00 | 0.00 | 44 | 1014.1 |
| 20260507223045 | 15 | 39 | 3.2 | 12.9 | 0.00 | 0.00 | 0.00 | 42 | 1013.9 |
| 20260507222524 | 15 | 316 | 4.8 | 12.9 | 0.00 | 0.00 | 0.00 | 43 | 1013.9 |
| 20260507222024 | 15 | 297 | 1.6 | 6.4 | 0.00 | 0.00 | 0.00 | 45 | 1013.9 |
| 20260507221541 | 15 | 263 | 1.6 | 3.2 | 0.00 | 0.00 | 0.00 | 45 | 1013.9 |
| 20260507221023 | 15 | 101 | 0.0 | 3.2 | 0.00 | 0.00 | 0.00 | 45 | 1013.8 |
| 20260507220524 | 15 | 0 | 1.6 | 3.2 | 0.00 | 0.00 | 0.00 | 45 | 1013.8 |
| 20260507220040 | 15 | 322 | 1.6 | 3.2 | 0.00 | 0.00 | 0.00 | 44 | 1013.6 |
| 20260507215525 | 14 | 74 | 0.0 | 3.2 | 0.00 | 0.00 | 0.00 | 44 | 1013.6 |
| 20260507215027 | 14 | 5 | 1.6 | 3.2 | 0.00 | 0.00 | 0.00 | 44 | 1013.6 |
| 20260507214542 | 15 | 279 | 1.6 | 4.8 | 0.00 | 0.00 | 0.00 | 45 | 1013.6 |
| 20260507214024 | 15 | 314 | 0.0 | 8.0 | 0.00 | 0.00 | 0.00 | 44 | 1013.5 |
| 20260507213524 | 15 | 342 | 3.2 | 8.0 | 0.00 | 0.00 | 0.00 | 45 | 1013.5 |
| 20260507213045 | 15 | 339 | 1.6 | 6.4 | 0.00 | 0.00 | 0.00 | 45 | 1013.5 |
| 20260507212523 | 15 | 350 | 1.6 | 6.4 | 0.00 | 0.00 | 0.00 | 46 | 1013.4 |
| 20260507212023 | 15 | 308 | 1.6 | 4.8 | 0.00 | 0.00 | 0.00 | 47 | 1013.4 |
| 20260507211542 | 15 | 318 | 1.6 | 9.7 | 0.00 | 0.00 | 0.00 | 46 | 1013.4 |
| 20260507211024 | 15 | 300 | 3.2 | 9.7 | 0.00 | 0.00 | 0.00 | 48 | 1013.5 |
| 20260507210523 | 14 | 345 | 1.6 | 3.2 | 0.00 | 0.00 | 0.00 | 49 | 1013.5 |
| 20260507210045 | 14 | 302 | 0.0 | 3.2 | 0.00 | 0.00 | 0.00 | 48 | 1013.4 |
| 20260507205524 | 14 | 299 | 1.6 | 4.8 | 0.00 | 0.00 | 0.00 | 47 | 1013.5 |
| 20260507205025 | 14 | 0 | 1.6 | 4.8 | 0.00 | 0.00 | 0.00 | 48 | 1013.4 |
| 20260507204552 | 14 | 23 | 3.2 | 8.0 | 0.00 | 0.00 | 0.00 | 47 | 1013.5 |
| 20260507204024 | 15 | 295 | 1.6 | 8.0 | 0.00 | 0.00 | 0.00 | 49 | 1013.3 |
| 20260507203525 | 15 | 330 | 1.6 | 9.7 | 0.00 | 0.00 | 0.00 | 46 | 1013.2 |
| 20260507203041 | 15 | 314 | 1.6 | 9.7 | 0.00 | 0.00 | 0.00 | 47 | 1013.4 |
| 20260507202524 | 15 | 307 | 1.6 | 8.0 | 0.00 | 0.00 | 0.00 | 48 | 1013.5 |
| 20260507202023 | 15 | 10 | 3.2 | 8.0 | 0.00 | 0.00 | 0.00 | 47 | 1013.6 |
| 20260507201548 | 15 | 20 | 1.6 | 9.7 | 0.00 | 0.00 | 0.00 | 46 | 1013.5 |
| 20260507201024 | 15 | 26 | 3.2 | 9.7 | 0.00 | 0.00 | 0.00 | 45 | 1013.4 |
| 20260507200527 | 15 | 300 | 3.2 | 8.0 | 0.00 | 0.00 | 0.00 | 45 | 1013.5 |
| 20260507200050 | 16 | 293 | 1.6 | 8.0 | 0.00 | 0.00 | 0.00 | 46 | 1013.4 |
| 20260507195524 | 15 | 16 | 3.2 | 6.4 | 0.00 | 0.00 | 0.00 | 48 | 1013.6 |
| 20260507195028 | 15 | 287 | 3.2 | 8.0 | 0.00 | 0.00 | 0.00 | 49 | 1013.7 |
| 20260507194549 | 15 | 306 | 3.2 | 8.0 | 0.00 | 0.00 | 0.00 | 49 | 1013.9 |
| 20260507194024 | 14 | 158 | 1.6 | 6.4 | 0.00 | 0.00 | 0.00 | 50 | 1013.9 |
| 20260507193525 | 14 | 341 | 1.6 | 6.4 | 0.00 | 0.00 | 0.00 | 50 | 1014.2 |
| 20260507193041 | 14 | 311 | 3.2 | 11.3 | 0.00 | 0.00 | 0.00 | 50 | 1014.1 |
| 20260507192526 | 14 | 297 | 4.8 | 11.3 | 0.00 | 0.00 | 0.00 | 49 | 1014.1 |
| 20260507192024 | 14 | 276 | 1.6 | 8.0 | 0.00 | 0.00 | 0.00 | 52 | 1014.1 |
| 20260507191608 | 14 | 31 | 3.2 | 8.0 | 0.00 | 0.00 | 0.00 | 49 | 1014.1 |
| 20260507191026 | 14 | 20 | 3.2 | 9.7 | 0.00 | 0.00 | 0.00 | 50 | 1014.0 |
| 20260507190527 | 14 | 336 | 3.2 | 9.7 | 0.00 | 0.00 | 0.00 | 48 | 1014.0 |
| 20260507190044 | 14 | 6 | 1.6 | 9.7 | 0.00 | 0.00 | 0.00 | 49 | 1013.9 |
| 20260507185526 | 14 | 254 | 3.2 | 9.7 | 0.00 | 0.00 | 0.00 | 50 | 1014.0 |
| 20260507185026 | 14 | 280 | 3.2 | 6.4 | 0.00 | 0.00 | 0.00 | 48 | 1014.1 |
| 20260507184556 | 14 | 25 | 3.2 | 8.0 | 0.00 | 0.00 | 0.00 | 49 | 1014.1 |
| 20260507184028 | 14 | 38 | 1.6 | 8.0 | 0.00 | 0.00 | 0.00 | 51 | 1014.1 |
| 20260507183526 | 14 | 322 | 1.6 | 8.0 | 0.00 | 0.00 | 0.00 | 51 | 1014.1 |
| 20260507183048 | 15 | 356 | 3.2 | 8.0 | 0.00 | 0.00 | 0.00 | 49 | 1014.2 |
| 20260507182527 | 15 | 278 | 3.2 | 8.0 | 0.00 | 0.00 | 0.00 | 49 | 1014.0 |
| 20260507182028 | 15 | 83 | 3.2 | 8.0 | 0.00 | 0.00 | 0.00 | 48 | 1014.2 |
| 20260507181544 | 15 | 323 | 1.6 | 6.4 | 0.00 | 0.00 | 0.00 | 50 | 1014.2 |
| 20260507181029 | 14 | 27 | 3.2 | 6.4 | 0.00 | 0.00 | 0.00 | 50 | 1014.1 |
| 20260507180527 | 14 | 302 | 3.2 | 6.4 | 0.00 | 0.00 | 0.00 | 49 | 1014.2 |
| 20260507180041 | 15 | 32 | 1.6 | 4.8 | 0.00 | 0.00 | 0.00 | 50 | 1014.2 |
| 20260507175525 | 14 | 18 | 1.6 | 6.4 | 0.00 | 0.03 | 0.00 | 50 | 1014.2 |
| 20260507175027 | 14 | 265 | 3.2 | 6.4 | 0.00 | 0.03 | 0.00 | 50 | 1014.2 |
| 20260507174547 | 14 | 316 | 1.6 | 4.8 | 0.00 | 0.03 | 0.00 | 51 | 1014.3 |
| 20260507174026 | 14 | 303 | 1.6 | 6.4 | 0.00 | 0.03 | 0.00 | 49 | 1014.4 |
| 20260507173527 | 15 | 273 | 3.2 | 6.4 | 0.00 | 0.03 | 0.00 | 48 | 1014.4 |
| 20260507173046 | 15 | 286 | 1.6 | 6.4 | 0.00 | 0.03 | 0.00 | 46 | 1014.4 |
| 20260507172527 | 15 | 341 | 3.2 | 6.4 | 0.00 | 0.03 | 0.00 | 50 | 1014.6 |
| 20260507172026 | 14 | 245 | 1.6 | 8.0 | 0.00 | 0.03 | 0.00 | 53 | 1014.8 |
| 20260507171549 | 15 | 302 | 3.2 | 8.0 | 0.00 | 0.03 | 0.00 | 51 | 1014.9 |
| 20260507171026 | 15 | 15 | 3.2 | 4.8 | 0.00 | 0.03 | 0.00 | 49 | 1014.7 |
| 20260507170526 | 15 | 228 | 1.6 | 4.8 | 0.00 | 0.03 | 0.00 | 50 | 1014.9 |
| 20260507170041 | 14 | 347 | 1.6 | 4.8 | 0.00 | 0.03 | 0.00 | 51 | 1015.1 |
| 20260507165526 | 14 | 134 | 1.6 | 4.8 | 0.00 | 0.08 | 0.00 | 52 | 1015.1 |
| 20260507165026 | 14 | 252 | 1.6 | 6.4 | 0.00 | 0.08 | 0.00 | 56 | 1015.1 |
| 20260507164555 | 13 | 229 | 1.6 | 6.4 | 0.00 | 0.08 | 0.00 | 53 | 1015.2 |
| 20260507164027 | 13 | 281 | 1.6 | 4.8 | 0.00 | 0.08 | 0.00 | 56 | 1015.1 |
| 20260507163601 | 13 | 270 | 1.6 | 4.8 | 0.00 | 0.08 | 0.00 | 53 | 1015.3 |
| 20260507163048 | 13 | 195 | 1.6 | 4.8 | 0.00 | 0.08 | 0.00 | 54 | 1015.2 |
| 20260507162524 | 13 | 25 | 1.6 | 4.8 | 0.00 | 0.08 | 0.00 | 56 | 1015.3 |
| 20260507162024 | 13 | 165 | 1.6 | 4.8 | 0.00 | 0.08 | 0.00 | 55 | 1015.3 |
| 20260507161548 | 12 | 98 | 1.6 | 6.4 | 0.00 | 0.08 | 0.00 | 53 | 1015.4 |
| 20260507161023 | 12 | 323 | 1.6 | 6.4 | 0.00 | 0.08 | 0.00 | 53 | 1015.4 |
| 20260507160528 | 12 | 311 | 0.0 | 3.2 | 0.00 | 0.08 | 0.00 | 57 | 1015.5 |
| 20260507160048 | 13 | 217 | 1.6 | 3.2 | 0.00 | 0.08 | 0.00 | 57 | 1015.4 |
| 20260507155528 | 12 | 124 | 1.6 | 8.0 | 0.00 | 0.18 | 0.00 | 56 | 1015.5 |
| 20260507155026 | 12 | 0 | 1.6 | 8.0 | 0.00 | 0.18 | 0.00 | 56 | 1015.5 |
| 20260507154546 | 12 | 349 | 1.6 | 6.4 | 0.00 | 0.18 | 0.00 | 59 | 1015.7 |
| 20260507154026 | 12 | 0 | 0.0 | 6.4 | 0.00 | 0.18 | 0.00 | 57 | 1015.6 |
| 20260507153526 | 12 | 7 | 0.0 | 6.4 | 0.00 | 0.18 | 0.00 | 57 | 1015.7 |
| 20260507153041 | 12 | 326 | 3.2 | 6.4 | 0.00 | 0.18 | 0.00 | 60 | 1015.7 |
| 20260507152526 | 12 | 308 | 1.6 | 4.8 | 0.00 | 0.18 | 0.00 | 57 | 1015.8 |
| 20260507152027 | 12 | 346 | 1.6 | 4.8 | 0.00 | 0.18 | 0.00 | 62 | 1015.8 |
| 20260507151539 | 11 | 269 | 0.0 | 4.8 | 0.00 | 0.18 | 0.00 | 66 | 1015.9 |
| 20260507151026 | 11 | 243 | 0.0 | 4.8 | 0.00 | 0.18 | 0.00 | 67 | 1016.0 |
| 20260507150527 | 11 | 283 | 0.0 | 1.6 | 0.00 | 0.18 | 0.00 | 64 | 1016.0 |
| 20260507150048 | 11 | 5 | 1.6 | 4.8 | 0.00 | 0.18 | 0.00 | 63 | 1016.0 |
| 20260507145524 | 11 | 0 | 0.0 | 4.8 | 0.00 | 0.18 | 0.00 | 62 | 1016.0 |
| 20260507145023 | 11 | 0 | 0.0 | 4.8 | 0.00 | 0.18 | 0.00 | 63 | 1016.2 |
| 20260507144543 | 11 | 295 | 1.6 | 4.8 | 0.00 | 0.18 | 0.00 | 65 | 1016.2 |
| 20260507144024 | 11 | 233 | 1.6 | 4.8 | 0.00 | 0.18 | 0.00 | 64 | 1016.2 |
| 20260507143524 | 11 | 0 | 0.0 | 3.2 | 0.00 | 0.18 | 0.00 | 65 | 1016.2 |
| 20260507143100 | 10 | 312 | 0.0 | 1.6 | 0.00 | 0.18 | 0.00 | 69 | 1016.3 |
| 20260507142527 | 10 | 0 | 0.0 | 1.6 | 0.00 | 0.18 | 0.00 | 68 | 1016.3 |
| 20260507142026 | 10 | 25 | 0.0 | 1.6 | 0.00 | 0.18 | 0.00 | 66 | 1016.5 |
| 20260507141600 | 10 | 0 | 0.0 | 1.6 | 0.00 | 0.18 | 0.00 | 70 | 1016.6 |
| 20260507141026 | 10 | 0 | 0.0 | 0.0 | 0.00 | 0.18 | 0.00 | 69 | 1016.7 |
| 20260507140525 | 10 | 0 | 0.0 | 0.0 | 0.00 | 0.18 | 0.00 | 71 | 1016.8 |
| 20260507140040 | 10 | 0 | 0.0 | 0.0 | 0.00 | 0.18 | 0.00 | 69 | 1016.8 |
| 20260507135526 | 9 | 0 | 0.0 | 0.0 | 0.00 | 0.18 | 0.00 | 71 | 1017.0 |
| 20260507135026 | 9 | 0 | 0.0 | 0.0 | 0.00 | 0.18 | 0.00 | 70 | 1017.1 |
| 20260507134546 | 9 | 0 | 0.0 | 0.0 | 0.00 | 0.18 | 0.00 | 70 | 1017.2 |
| 20260507134029 | 9 | 0 | 0.0 | 0.0 | 0.00 | 0.18 | 0.00 | 72 | 1017.1 |
| 20260507133528 | 8 | 0 | 0.0 | 0.0 | 0.00 | 0.18 | 0.00 | 71 | 1017.2 |
| 20260507133046 | 8 | 0 | 0.0 | 0.0 | 0.00 | 0.18 | 0.00 | 72 | 1017.3 |
| 20260507132524 | 8 | 0 | 0.0 | 0.0 | 0.00 | 0.18 | 0.00 | 73 | 1017.3 |
| 20260507132023 | 8 | 0 | 0.0 | 0.0 | 0.00 | 0.18 | 0.00 | 77 | 1017.3 |
| 20260507131554 | 8 | 0 | 0.0 | 0.0 | 0.00 | 0.18 | 0.00 | 78 | 1017.3 |
| 20260507131026 | 7 | 0 | 0.0 | 0.0 | 0.00 | 0.18 | 0.00 | 82 | 1017.3 |
| 20260507130527 | 7 | 0 | 0.0 | 0.0 | 0.00 | 0.18 | 0.00 | 87 | 1017.3 |
| 20260507130046 | 7 | 0 | 0.0 | 0.0 | 0.00 | 0.18 | 0.00 | 86 | 1017.2 |
| 20260507125526 | 6 | 0 | 0.0 | 0.0 | 0.00 | 0.23 | 0.00 | 88 | 1017.3 |
| 20260507125027 | 6 | 0 | 0.0 | 0.0 | 0.00 | 0.23 | 0.00 | 94 | 1017.2 |
| 20260507124543 | 6 | 0 | 0.0 | 0.0 | 0.00 | 0.23 | 0.00 | 95 | 1017.2 |
| 20260507124026 | 6 | 0 | 0.0 | 0.0 | 0.00 | 0.23 | 0.00 | 95 | 1017.2 |
| 20260507123523 | 6 | 0 | 0.0 | 0.0 | 0.00 | 0.23 | 0.00 | 95 | 1017.3 |
| 20260507123043 | 6 | 0 | 0.0 | 0.0 | 0.00 | 0.23 | 0.00 | 95 | 1017.3 |
| 20260507122526 | 6 | 0 | 0.0 | 0.0 | 0.00 | 0.23 | 0.00 | 95 | 1017.3 |
| 20260507122026 | 6 | 0 | 0.0 | 0.0 | 0.00 | 0.23 | 0.00 | 96 | 1017.3 |
| 20260507121546 | 6 | 0 | 0.0 | 0.0 | 0.00 | 0.23 | 0.00 | 96 | 1017.3 |
| 20260507121027 | 6 | 0 | 0.0 | 0.0 | 0.00 | 0.23 | 0.00 | 95 | 1017.3 |
| 20260507120529 | 6 | 0 | 0.0 | 0.0 | 0.00 | 0.23 | 0.00 | 95 | 1017.3 |
| 20260507120047 | 6 | 0 | 0.0 | 0.0 | 0.00 | 0.23 | 0.00 | 95 | 1017.4 |
| 20260507115524 | 6 | 0 | 0.0 | 0.0 | 0.00 | 0.28 | 0.00 | 95 | 1017.3 |
| 20260507115023 | 6 | 0 | 0.0 | 0.0 | 0.00 | 0.28 | 0.00 | 95 | 1017.2 |
| 20260507114542 | 6 | 0 | 0.0 | 0.0 | 0.00 | 0.28 | 0.00 | 95 | 1017.2 |
| 20260507114029 | 5 | 0 | 0.0 | 0.0 | 0.00 | 0.28 | 0.00 | 95 | 1017.0 |
| 20260507113530 | 5 | 0 | 0.0 | 0.0 | 0.00 | 0.28 | 0.00 | 94 | 1017.2 |
| 20260507113042 | 5 | 0 | 0.0 | 0.0 | 0.00 | 0.28 | 0.00 | 94 | 1017.1 |
| 20260507112523 | 5 | 0 | 0.0 | 0.0 | 0.00 | 0.28 | 0.00 | 94 | 1017.1 |
| 20260507112024 | 5 | 0 | 0.0 | 0.0 | 0.00 | 0.28 | 0.00 | 94 | 1017.0 |
| 20260507111541 | 5 | 0 | 0.0 | 0.0 | 0.00 | 0.28 | 0.00 | 93 | 1016.9 |
| 20260507111026 | 5 | 0 | 0.0 | 0.0 | 0.00 | 0.28 | 0.00 | 94 | 1016.8 |
| 20260507110526 | 5 | 0 | 0.0 | 0.0 | 0.00 | 0.28 | 0.00 | 93 | 1016.8 |
| 20260507110040 | 5 | 0 | 0.0 | 0.0 | 0.00 | 0.28 | 0.00 | 93 | 1016.8 |
| 20260507105525 | 5 | 0 | 0.0 | 0.0 | 0.00 | 0.46 | 0.00 | 92 | 1016.8 |
| 20260507105026 | 5 | 0 | 0.0 | 0.0 | 0.00 | 0.46 | 0.00 | 92 | 1016.7 |
| 20260507104539 | 5 | 0 | 0.0 | 0.0 | 0.00 | 0.46 | 0.00 | 92 | 1016.5 |
| 20260507104027 | 5 | 0 | 0.0 | 0.0 | 0.00 | 0.46 | 0.00 | 92 | 1016.6 |
| 20260507103524 | 6 | 0 | 0.0 | 0.0 | 0.00 | 0.46 | 0.00 | 92 | 1016.6 |
| 20260507103044 | 6 | 0 | 0.0 | 0.0 | 0.00 | 0.46 | 0.00 | 91 | 1016.6 |
| 20260507102523 | 6 | 0 | 0.0 | 0.0 | 0.00 | 0.46 | 0.00 | 91 | 1016.5 |
| 20260507102024 | 6 | 0 | 0.0 | 0.0 | 0.00 | 0.46 | 0.00 | 91 | 1016.4 |
| 20260507101542 | 6 | 0 | 0.0 | 0.0 | 0.00 | 0.46 | 0.00 | 89 | 1016.5 |
| 20260507101025 | 6 | 0 | 0.0 | 0.0 | 0.00 | 0.46 | 0.00 | 89 | 1016.4 |
| 20260507100523 | 6 | 0 | 0.0 | 0.0 | 0.00 | 0.46 | 0.00 | 89 | 1016.4 |
| 20260507100052 | 6 | 0 | 0.0 | 0.0 | 0.00 | 0.46 | 0.00 | 89 | 1016.3 |
| 20260507095526 | 6 | 0 | 0.0 | 0.0 | 0.00 | 1.09 | 0.00 | 87 | 1016.3 |
| 20260507095027 | 6 | 0 | 0.0 | 0.0 | 0.00 | 1.09 | 0.00 | 88 | 1016.2 |
| 20260507094540 | 6 | 0 | 0.0 | 0.0 | 0.00 | 1.09 | 0.00 | 87 | 1016.3 |
| 20260507094026 | 7 | 0 | 0.0 | 0.0 | 0.00 | 1.09 | 0.00 | 85 | 1016.3 |
| 20260507093523 | 7 | 0 | 0.0 | 0.0 | 0.00 | 1.09 | 0.00 | 85 | 1016.3 |
| 20260507093039 | 7 | 0 | 0.0 | 0.0 | 0.00 | 1.09 | 0.00 | 84 | 1016.4 |
| 20260507092526 | 7 | 0 | 0.0 | 0.0 | 0.00 | 1.09 | 0.00 | 84 | 1016.2 |
| 20260507092025 | 7 | 0 | 0.0 | 1.6 | 0.00 | 1.09 | 0.00 | 83 | 1016.3 |
| 20260507091547 | 7 | 0 | 0.0 | 1.6 | 0.00 | 1.09 | 0.00 | 84 | 1016.1 |
| 20260507091026 | 7 | 0 | 0.0 | 1.6 | 0.00 | 1.09 | 0.00 | 83 | 1016.2 |
| 20260507090526 | 7 | 0 | 0.0 | 1.6 | 0.00 | 1.09 | 0.00 | 83 | 1016.3 |
| 20260507090050 | 7 | 0 | 0.0 | 1.6 | 0.00 | 1.09 | 0.00 | 82 | 1016.3 |
| 20260507085523 | 7 | 0 | 0.0 | 1.6 | 0.00 | 1.24 | 0.00 | 81 | 1016.3 |
| 20260507085023 | 7 | 0 | 0.0 | 1.6 | 0.00 | 1.24 | 0.00 | 81 | 1016.2 |
| 20260507084550 | 8 | 0 | 0.0 | 1.6 | 0.00 | 1.24 | 0.00 | 81 | 1016.2 |
| 20260507084027 | 8 | 0 | 0.0 | 1.6 | 0.00 | 1.24 | 0.00 | 84 | 1016.3 |
| 20260507083526 | 8 | 0 | 0.0 | 0.0 | 0.00 | 1.24 | 0.00 | 83 | 1016.2 |
| 20260507083041 | 8 | 0 | 0.0 | 0.0 | 0.00 | 1.24 | 0.00 | 84 | 1016.4 |
| 20260507082523 | 8 | 0 | 0.0 | 0.0 | 0.00 | 1.24 | 0.00 | 84 | 1016.3 |
| 20260507082024 | 8 | 0 | 0.0 | 0.0 | 0.00 | 1.24 | 0.00 | 84 | 1016.2 |
| 20260507081550 | 8 | 0 | 0.0 | 1.6 | 0.00 | 1.24 | 0.00 | 84 | 1016.2 |
| 20260507081026 | 8 | 0 | 0.0 | 1.6 | 0.00 | 1.24 | 0.00 | 84 | 1016.3 |
| 20260507080528 | 8 | 0 | 0.0 | 0.0 | 0.00 | 1.24 | 0.00 | 86 | 1016.3 |
| 20260507080047 | 8 | 0 | 0.0 | 0.0 | 0.00 | 1.24 | 0.00 | 86 | 1016.3 |
| 20260507075526 | 8 | 0 | 0.0 | 0.0 | 0.00 | 1.24 | 0.00 | 86 | 1016.2 |
| 20260507075028 | 8 | 0 | 0.0 | 0.0 | 0.00 | 1.24 | 0.00 | 86 | 1016.1 |
| 20260507074546 | 8 | 0 | 0.0 | 0.0 | 0.00 | 1.24 | 0.00 | 86 | 1016.2 |
| 20260507074025 | 8 | 0 | 0.0 | 0.0 | 0.00 | 1.24 | 0.00 | 85 | 1016.1 |
| 20260507073524 | 8 | 0 | 0.0 | 0.0 | 0.00 | 1.24 | 0.00 | 85 | 1016.1 |
| 20260507073040 | 8 | 0 | 0.0 | 1.6 | 0.00 | 1.24 | 0.00 | 86 | 1016.2 |
| 20260507072528 | 8 | 0 | 0.0 | 1.6 | 0.00 | 1.24 | 0.00 | 86 | 1016.2 |
| 20260507072022 | 8 | 0 | 0.0 | 1.6 | 0.00 | 1.24 | 0.00 | 85 | 1016.2 |
| 20260507071539 | 8 | 0 | 0.0 | 0.0 | 0.00 | 1.24 | 0.00 | 86 | 1016.1 |
| 20260507071031 | 8 | 0 | 0.0 | 0.0 | 0.00 | 1.24 | 0.00 | 86 | 1016.1 |
| 20260507070526 | 8 | 0 | 0.0 | 0.0 | 0.00 | 1.24 | 0.00 | 85 | 1016.2 |
| 20260507070049 | 8 | 0 | 0.0 | 0.0 | 0.00 | 1.24 | 0.00 | 85 | 1016.1 |
| 20260507065523 | 8 | 0 | 0.0 | 0.0 | 0.00 | 1.24 | 0.00 | 85 | 1016.2 |
| 20260507065024 | 8 | 0 | 0.0 | 0.0 | 0.00 | 1.24 | 0.00 | 87 | 1016.2 |
| 20260507064618 | 8 | 0 | 0.0 | 0.0 | 0.00 | 1.24 | 0.00 | 88 | 1016.0 |
| 20260507064024 | 8 | 0 | 0.0 | 0.0 | 0.00 | 1.24 | 0.00 | 88 | 1016.1 |
| 20260507063525 | 8 | 0 | 0.0 | 0.0 | 0.00 | 1.24 | 0.00 | 88 | 1016.1 |
| 20260507063042 | 9 | 0 | 0.0 | 0.0 | 0.00 | 1.24 | 0.00 | 88 | 1016.1 |
| 20260507062525 | 9 | 0 | 0.0 | 0.0 | 0.00 | 1.24 | 0.00 | 87 | 1016.0 |
| 20260507062024 | 9 | 0 | 0.0 | 0.0 | 0.00 | 1.24 | 0.00 | 86 | 1016.1 |
| 20260507061542 | 9 | 0 | 0.0 | 0.0 | 0.00 | 1.24 | 0.00 | 86 | 1016.1 |
| 20260507061024 | 9 | 0 | 0.0 | 0.0 | 0.00 | 1.24 | 0.00 | 87 | 1016.0 |
| 20260507060526 | 9 | 0 | 0.0 | 0.0 | 0.00 | 1.24 | 0.00 | 86 | 1016.1 |
| 20260507055523 | 9 | 0 | 0.0 | 0.0 | 0.00 | 1.24 | 0.00 | 86 | 1016.1 |
| 20260507055025 | 9 | 0 | 0.0 | 0.0 | 0.00 | 1.24 | 0.00 | 86 | 1016.1 |
| 20260507054546 | 9 | 0 | 0.0 | 0.0 | 0.00 | 1.24 | 0.00 | 86 | 1016.3 |
| 20260507054026 | 9 | 0 | 0.0 | 1.6 | 0.00 | 1.24 | 0.00 | 86 | 1016.3 |
| 20260507053526 | 9 | 0 | 0.0 | 1.6 | 0.00 | 1.24 | 0.00 | 85 | 1016.4 |
| 20260507053043 | 9 | 88 | 0.0 | 1.6 | 0.00 | 1.24 | 0.00 | 87 | 1016.5 |
| 20260507052524 | 9 | 88 | 0.0 | 1.6 | 0.00 | 1.24 | 0.00 | 89 | 1016.5 |
| 20260507052026 | 9 | 0 | 0.0 | 1.6 | 0.00 | 1.24 | 0.00 | 92 | 1016.5 |
| 20260507051551 | 9 | 0 | 0.0 | 6.4 | 0.00 | 1.24 | 0.00 | 93 | 1016.7 |
| 20260507051026 | 9 | 0 | 0.0 | 6.4 | 0.00 | 1.24 | 0.00 | 95 | 1016.7 |
| 20260507050527 | 10 | 8 | 1.6 | 6.4 | 0.00 | 1.24 | 0.00 | 96 | 1016.6 |
| 20260507050048 | 10 | 290 | 0.0 | 3.2 | 0.00 | 1.24 | 0.00 | 97 | 1016.6 |
| 20260507045525 | 10 | 0 | 0.0 | 0.0 | 0.00 | 1.24 | 0.00 | 97 | 1016.6 |
| 20260507045027 | 10 | 0 | 0.0 | 0.0 | 0.00 | 1.24 | 0.00 | 97 | 1016.4 |
| 20260507044542 | 10 | 0 | 0.0 | 0.0 | 0.00 | 1.24 | 0.00 | 97 | 1016.5 |
| 20260507044023 | 10 | 0 | 0.0 | 0.0 | 0.00 | 1.24 | 0.00 | 97 | 1016.6 |
| 20260507043523 | 10 | 0 | 0.0 | 0.0 | 0.00 | 1.24 | 0.00 | 97 | 1016.6 |
| 20260507043041 | 10 | 0 | 0.0 | 0.0 | 0.00 | 1.24 | 0.00 | 97 | 1016.5 |
| 20260507042528 | 10 | 0 | 0.0 | 0.0 | 0.00 | 1.24 | 0.00 | 96 | 1016.5 |
| 20260507042026 | 10 | 0 | 0.0 | 0.0 | 0.00 | 1.24 | 0.00 | 96 | 1016.5 |
| 20260507041540 | 10 | 0 | 0.0 | 0.0 | 0.00 | 1.24 | 0.00 | 96 | 1016.5 |
| 20260507041032 | 10 | 0 | 0.0 | 0.0 | 0.00 | 1.24 | 0.00 | 96 | 1016.4 |
| 20260507040525 | 10 | 0 | 0.0 | 0.0 | 0.00 | 1.24 | 0.00 | 96 | 1016.3 |
| 20260507040047 | 10 | 0 | 0.0 | 0.0 | 0.00 | 1.24 | 0.00 | 96 | 1016.4 |
| 20260507035525 | 10 | 0 | 0.0 | 0.0 | 0.00 | 1.24 | 1.24 | 96 | 1016.3 |
| 20260507035029 | 10 | 0 | 0.0 | 0.0 | 0.00 | 1.24 | 1.24 | 96 | 1016.2 |
| 20260507034542 | 10 | 0 | 0.0 | 0.0 | 0.00 | 1.24 | 1.24 | 96 | 1016.1 |
| 20260507034024 | 10 | 0 | 0.0 | 0.0 | 0.00 | 1.24 | 1.24 | 96 | 1016.2 |
| 20260507033528 | 10 | 0 | 0.0 | 0.0 | 0.00 | 1.24 | 1.24 | 96 | 1016.4 |
| 20260507033045 | 10 | 0 | 0.0 | 0.0 | 0.00 | 1.24 | 1.24 | 96 | 1016.3 |
| 20260507032524 | 10 | 0 | 0.0 | 0.0 | 0.00 | 1.24 | 1.24 | 96 | 1016.2 |
| 20260507032024 | 10 | 0 | 0.0 | 0.0 | 0.00 | 1.24 | 1.24 | 96 | 1016.4 |
| 20260507031544 | 10 | 0 | 0.0 | 0.0 | 0.00 | 1.24 | 1.24 | 96 | 1016.5 |
| 20260507031023 | 10 | 0 | 0.0 | 0.0 | 0.00 | 1.24 | 1.24 | 96 | 1016.7 |
| 20260507030526 | 10 | 0 | 0.0 | 0.0 | 0.00 | 1.24 | 1.24 | 96 | 1016.8 |
| 20260507030040 | 10 | 0 | 0.0 | 0.0 | 0.00 | 1.24 | 1.24 | 96 | 1016.6 |
| 20260507025530 | 10 | 0 | 0.0 | 0.0 | 0.00 | 1.24 | 1.24 | 96 | 1016.6 |
| 20260507025027 | 10 | 0 | 0.0 | 0.0 | 0.00 | 1.24 | 1.24 | 95 | 1016.4 |
| 20260507024546 | 10 | 0 | 0.0 | 0.0 | 0.00 | 1.24 | 1.24 | 95 | 1016.1 |
| 20260507024024 | 10 | 0 | 0.0 | 0.0 | 0.00 | 1.24 | 1.24 | 95 | 1016.1 |